Black River Falls, WI

4:01 PM CDT on July 22, 2017 (GMT -0500)
Black River Falls Area

Weather History for KBCK - January, 2012

Change the Weather History Date:

Friday, January 20, 2012

  Actual Average (KCMY) Record (KCMY)
Temperature  
Mean Temperature -7 °F -  
Max Temperature 8 °F 25 °F 45 °F (1968)
Min Temperature -22 °F 4 °F -31 °F (2008)
Degree Days  
Heating Degree Days 72    
Moisture  
Dew Point -8 °F    
Average Humidity 79    
Maximum Humidity 92    
Minimum Humidity 70    
Precipitation  
Precipitation 0.02 in - - ()
Sea Level Pressure  
Sea Level Pressure 30.17 in    
Wind  
Wind Speed 0 mph (ENE)    
Max Wind Speed 5 mph    
Max Gust Speed -    
Visibility 7 miles    
Events Snow    
Averages and records for this station are not official NWS values.
T = Trace of Precipitation, MM = Missing Value Source: NWS Daily Summary

Daily Weather History Graph

Daily Weather History Graph

Search for Another Location

Airport or City:

Trip Planner

Search our weather history database for the weather conditions in past years. The results will help you decide how hot, cold, wet, or windy it might be!

Date:

Astronomy

Jan. 20, 2012 Rise Set
Actual Time 7:32 AM CST 4:56 PM CST
Civil Twilight 7:01 AM CST 5:28 PM CST
Nautical Twilight 6:25 AM CST 6:03 PM CST
Astronomical Twilight 5:51 AM CST 6:38 PM CST
Moon 5:13 AM CST (1/20) 2:25 PM CST (1/20)
Length of Visible Light 10h 27m
Length of Day
9h 23m
Waning Crescent, 8% of the Moon is Illuminated
Jan 20
Waning Crescent
Jan 23
New
Jan 30
First Quarter
Feb 7
Full
Feb 14
Last Quarter

Hourly Weather History & Observations

Time (CST) Temp. Windchill Dew Point Humidity Pressure Visibility Wind Dir Wind Speed Gust Speed Precip Events Conditions
12:15 AM -20.2 °F - -25.6 °F 76% 30.17 in 10.0 mi Calm Calm - N/A   Clear
12:35 AM -22.0 °F - -27.4 °F 76% 30.16 in 10.0 mi Calm Calm - N/A   Clear
12:55 AM -22.0 °F - -27.4 °F 76% 30.17 in 10.0 mi Calm Calm - N/A   Clear
1:15 AM -20.2 °F - -25.6 °F 76% 30.17 in 10.0 mi Calm Calm - N/A   Clear
1:35 AM -18.4 °F - -25.6 °F 70% 30.17 in 10.0 mi Calm Calm - N/A   Clear
1:55 AM -16.6 °F - -22.0 °F 76% 30.17 in 10.0 mi Calm Calm - N/A   Clear
2:15 AM -14.8 °F - -22.0 °F 70% 30.18 in 10.0 mi Calm Calm - N/A   Clear
2:55 AM -13.0 °F - -18.4 °F 77% 30.17 in 10.0 mi Calm Calm - N/A   Clear
3:15 AM -13.0 °F - -16.6 °F 84% 30.17 in 10.0 mi Calm Calm - N/A   Scattered Clouds
3:35 AM -11.2 °F - -16.6 °F 77% 30.17 in 10.0 mi Calm Calm - N/A   Scattered Clouds
3:55 AM -9.4 °F - -16.6 °F 71% 30.19 in 10.0 mi Calm Calm - N/A   Clear
4:15 AM -9.4 °F - -14.8 °F 77% 30.19 in 10.0 mi Calm Calm - N/A   Clear
4:35 AM -7.6 °F - -14.8 °F 71% 30.18 in 10.0 mi Calm Calm - N/A   Clear
4:55 AM -7.6 °F - -14.8 °F 71% 30.19 in 10.0 mi Calm Calm - N/A   Mostly Cloudy
5:15 AM -5.8 °F - -13.0 °F 71% 30.18 in 10.0 mi Calm Calm - N/A   Overcast
5:35 AM -5.8 °F - -11.2 °F 77% 30.18 in 10.0 mi Calm Calm - N/A   Overcast
5:55 AM -5.8 °F - -11.2 °F 77% 30.16 in 10.0 mi Calm Calm - N/A   Overcast
6:15 AM -4.0 °F - -9.4 °F 78% 30.16 in 10.0 mi Calm Calm - N/A   Overcast
6:35 AM -4.0 °F - -9.4 °F 78% 30.16 in 10.0 mi Calm Calm - N/A   Overcast
6:55 AM -4.0 °F - -9.4 °F 78% 30.17 in 10.0 mi Calm Calm - N/A   Overcast
7:15 AM -4.0 °F - -9.4 °F 78% 30.17 in 10.0 mi Calm Calm - N/A   Overcast
7:35 AM -4.0 °F - -9.4 °F 78% 30.17 in 10.0 mi Calm Calm - N/A   Overcast
7:55 AM -2.2 °F - -7.6 °F 78% 30.17 in 3.0 mi Calm Calm - N/A Snow Light Snow
8:15 AM -0.4 °F - -5.8 °F 78% 30.17 in 1.5 mi Calm Calm - N/A Snow Light Snow
8:35 AM -0.4 °F - -5.8 °F 78% 30.17 in 1.8 mi Calm Calm - N/A Snow Light Snow
8:55 AM -0.4 °F - -4.0 °F 85% 30.16 in 1.5 mi Calm Calm - N/A Snow Light Snow
9:15 AM 1.4 °F - -4.0 °F 78% 30.17 in 1.5 mi Calm Calm - N/A Snow Light Snow
9:35 AM 1.4 °F - -4.0 °F 78% 30.18 in 1.0 mi Calm Calm - N/A Snow Light Snow
9:55 AM 1.4 °F - -4.0 °F 78% 30.19 in 0.8 mi Calm Calm - N/A Snow Light Snow
10:15 AM 1.4 °F - -2.2 °F 85% 30.18 in 0.8 mi Calm Calm - N/A Snow Light Snow
10:35 AM 3.2 °F - -2.2 °F 78% 30.18 in 1.2 mi Calm Calm - N/A Snow Light Snow
10:55 AM 3.2 °F - -0.4 °F 85% 30.18 in 0.8 mi Calm Calm - N/A Snow Light Snow
11:15 AM 3.2 °F -4.2 °F -0.4 °F 85% 30.18 in 0.5 mi East 3.5 mph - N/A Snow Light Snow
11:35 AM 3.2 °F -4.2 °F -0.4 °F 85% 30.18 in 0.8 mi East 3.5 mph - N/A Snow Light Snow
11:55 AM 5.0 °F -2.1 °F -0.4 °F 78% 30.18 in 0.8 mi ENE 3.5 mph - 0.01 in Snow Light Snow
12:35 PM 5.0 °F - -0.4 °F 78% 30.18 in 0.5 mi Calm Calm - N/A Snow Snow
12:55 PM 5.0 °F - 1.4 °F 85% 30.17 in 1.0 mi Calm Calm - N/A Snow Light Snow
1:15 PM 5.0 °F - 1.4 °F 85% 30.17 in 0.8 mi Calm Calm - N/A Snow Light Snow
1:55 PM 6.8 °F - 1.4 °F 79% 30.16 in 1.8 mi Calm Calm - 0.01 in Snow Light Snow
2:15 PM 6.8 °F - 1.4 °F 79% 30.16 in 1.8 mi Calm Calm - N/A Snow Light Snow
2:35 PM 6.8 °F - 1.4 °F 79% 30.16 in 3.0 mi Calm Calm - N/A Snow Light Snow
2:55 PM 8.6 °F - 1.4 °F 73% 30.16 in 5.0 mi Calm Calm - N/A Snow Light Snow
3:15 PM 8.6 °F - 1.4 °F 73% 30.16 in 7.0 mi Calm Calm - N/A Snow Light Snow
3:55 PM 8.6 °F 0.1 °F 1.4 °F 73% 30.15 in 10.0 mi ENE 4.6 mph - N/A   Clear
4:15 PM 8.6 °F 0.1 °F 1.4 °F 73% 30.15 in 10.0 mi ENE 4.6 mph - N/A   Clear
4:35 PM 6.8 °F -0.1 °F 1.4 °F 79% 30.15 in 10.0 mi NE 3.5 mph - N/A   Clear
4:55 PM 5.0 °F - -0.4 °F 78% 30.15 in 10.0 mi Calm Calm - N/A   Clear
5:15 PM 3.2 °F - -0.4 °F 85% 30.15 in 10.0 mi Calm Calm - N/A   Clear
5:35 PM 1.4 °F - -0.4 °F 92% 30.15 in 10.0 mi Calm Calm - N/A   Clear
5:55 PM -0.4 °F - -4.0 °F 85% 30.16 in 10.0 mi Calm Calm - N/A   Clear
6:15 PM -0.4 °F - -4.0 °F 85% 30.17 in 10.0 mi Calm Calm - N/A   Clear
6:35 PM -0.4 °F - -4.0 °F 85% 30.17 in 10.0 mi Calm Calm - N/A   Clear
6:55 PM -4.0 °F - -7.6 °F 85% 30.18 in 10.0 mi Calm Calm - N/A   Clear
7:15 PM -5.8 °F - -7.6 °F 92% 30.18 in 10.0 mi Calm Calm - N/A   Clear
7:35 PM -5.8 °F - -7.6 °F 92% 30.19 in 10.0 mi Calm Calm - N/A   Clear
7:55 PM -7.6 °F - -11.2 °F 84% 30.19 in 10.0 mi Calm Calm - N/A   Mostly Cloudy
8:15 PM -5.8 °F - -9.4 °F 84% 30.19 in 10.0 mi Calm Calm - N/A   Overcast
8:35 PM -4.0 °F - -7.6 °F 85% 30.19 in 10.0 mi Calm Calm - N/A   Overcast
8:55 PM -4.0 °F - -7.6 °F 85% 30.19 in 10.0 mi Calm Calm - N/A   Scattered Clouds
9:15 PM -5.8 °F - -9.4 °F 84% 30.19 in 10.0 mi Calm Calm - N/A   Scattered Clouds
9:35 PM -5.8 °F - -9.4 °F 84% 30.20 in 10.0 mi Calm Calm - N/A   Overcast
9:55 PM -4.0 °F - -7.6 °F 85% 30.21 in 10.0 mi Calm Calm - N/A   Overcast
10:15 PM -4.0 °F - -7.6 °F 85% 30.21 in 10.0 mi Calm Calm - N/A   Scattered Clouds
10:35 PM -5.8 °F - -9.4 °F 84% 30.21 in 10.0 mi Calm Calm - N/A   Clear
10:55 PM -7.6 °F - -13.0 °F 77% 30.21 in 7.0 mi Calm Calm - N/A   Clear
11:15 PM -9.4 °F - -14.8 °F 77% 30.21 in 10.0 mi Calm Calm - N/A   Clear
11:35 PM -9.4 °F - -14.8 °F 77% 30.22 in 10.0 mi Calm Calm - N/A   Clear
11:55 PM -11.2 °F - -16.6 °F 77% 30.22 in 10.0 mi Calm Calm - N/A   Clear